Weather History for Orlando, FL

Change the Weather History Date:

Sunday, March 24, 2013

  Actual Average Record
Temperature  
Mean Temperature 74 °F -  
Max Temperature 82 °F 76 °F 87 °F (2011)
Min Temperature 66 °F 57 °F 48 °F (1998)
Cooling Degree Days 8    
Growing Degree Days 24 (Base 50)    
Moisture  
Dew Point 67 °F    
Average Humidity 84    
Maximum Humidity 96    
Minimum Humidity 65    
Precipitation  
Precipitation 0.05 in - - ()
Sea Level Pressure  
Sea Level Pressure 29.72 in    
Wind  
Wind Speed 13 mph (SW)    
Max Wind Speed 45 mph    
Max Gust Speed 62 mph    
Visibility 8 miles    
Events Fog , Rain , Thunderstorm    
Averages and records for this station are not official NWS values.
T = Trace of Precipitation, MM = Missing Value Source: NWS Daily Summary

Daily Weather History Graph

Daily Weather History Graph

Search for Another Location

Airport:

Trip Planner

Search our weather history database for the weather conditions in past years. The results will help you decide how hot, cold, wet, or windy it might be!

Date:

Astronomy

Mar. 24, 2013 Rise Set
Actual Time 7:24 AM EDT 7:39 PM EDT
Civil Twilight 7:00 AM EDT 8:02 PM EDT
Nautical Twilight 6:33 AM EDT 8:30 PM EDT
Astronomical Twilight 6:05 AM EDT 8:58 PM EDT
Moon 5:15 PM EDT (3/24) 5:21 AM EDT (3/24)
Length of Visible Light 13h 01m
Length of Day
12h 14m
Waxing Gibbous, 91% of the Moon is Illuminated
Mar 24
Waxing Gibbous
Mar 27
Full
Apr 3
Last Quarter
Apr 10
New
Apr 18
First Quarter

Hourly Weather History & Observations

Time (EDT) Temp. Heat Index Dew Point Humidity Pressure Visibility Wind Dir Wind Speed Gust Speed Precip Events Conditions
12:53 AM 68.0 °F - 64.9 °F 90% 29.87 in 10.0 mi ESE 9.2 mph - N/A   Mostly Cloudy
1:53 AM 68.0 °F - 66.0 °F 93% 29.83 in 10.0 mi ESE 10.4 mph - N/A   Clear
2:53 AM 68.0 °F - 66.0 °F 93% 29.81 in 10.0 mi SE 6.9 mph - N/A   Mostly Cloudy
3:00 AM 68.0 °F - 66.2 °F 94% 29.80 in 10.0 mi ESE 6.9 mph - N/A   Overcast
3:53 AM 68.0 °F - 66.9 °F 96% 29.78 in 10.0 mi SE 9.2 mph - N/A   Mostly Cloudy
4:38 AM 68.0 °F - 66.2 °F 94% 29.75 in 10.0 mi SSE 8.1 mph - N/A   Mostly Cloudy
4:53 AM 68.0 °F - 66.9 °F 96% 29.76 in 10.0 mi South 6.9 mph - N/A   Mostly Cloudy
5:53 AM 69.1 °F - 66.9 °F 93% 29.73 in 9.0 mi South 11.5 mph - N/A   Partly Cloudy
6:32 AM 69.8 °F - 66.2 °F 88% 29.71 in 9.0 mi South 10.4 mph - N/A   Mostly Cloudy
6:53 AM 70.0 °F - 66.9 °F 90% 29.73 in 10.0 mi South 10.4 mph - N/A   Mostly Cloudy
7:53 AM 71.1 °F - 66.9 °F 87% 29.71 in 10.0 mi South 10.4 mph - N/A   Overcast
8:02 AM 71.6 °F - 66.2 °F 83% 29.70 in 10.0 mi SSW 9.2 mph - N/A   Overcast
8:53 AM 72.0 °F - 68.0 °F 87% 29.73 in 10.0 mi SW 10.4 mph - N/A   Overcast
9:38 AM 73.4 °F - 69.8 °F 88% 29.75 in 8.0 mi SSW 9.2 mph - 0.00 in   Overcast
9:53 AM 73.0 °F - 70.0 °F 90% 29.76 in 9.0 mi SW 8.1 mph - 0.00 in   Overcast
10:19 AM 75.2 °F - 69.8 °F 83% 29.74 in 10.0 mi SW 10.4 mph - N/A   Overcast
10:41 AM 75.2 °F - 69.8 °F 83% 29.74 in 10.0 mi SW 15.0 mph - N/A   Overcast
10:53 AM 78.1 °F - 69.1 °F 74% 29.75 in 10.0 mi WSW 16.1 mph 27.6 mph N/A   Overcast
11:53 AM 81.0 °F 84.1 °F 69.1 °F 67% 29.71 in 10.0 mi SSW 20.7 mph 33.4 mph N/A   Mostly Cloudy
12:53 PM 81.0 °F 83.8 °F 68.0 °F 65% 29.73 in 10.0 mi SW 20.7 mph 29.9 mph N/A   Overcast
1:53 PM 81.0 °F 83.8 °F 68.0 °F 65% 29.69 in 10.0 mi WSW 18.4 mph 28.8 mph N/A   Overcast
2:39 PM 78.8 °F - 68.0 °F 69% 29.72 in 3.0 mi WNW 43.7 mph 62.1 mph N/A Rain , Thunderstorm Light Thunderstorms and Rain
2:41 PM 75.2 °F - 66.2 °F 73% 29.77 in 1.0 mi WNW 44.9 mph 62.1 mph N/A Rain , Thunderstorm Thunderstorms and Rain
2:44 PM 66.2 °F - 64.4 °F 94% 29.74 in 0.2 mi NW 31.1 mph 62.1 mph N/A Fog , Rain , Thunderstorm Heavy Thunderstorms and Rain
2:53 PM 66.0 °F - 61.0 °F 84% 29.69 in 0.8 mi West 19.6 mph 43.7 mph N/A Rain , Thunderstorm Light Thunderstorms and Rain
2:55 PM 66.2 °F - 60.8 °F 83% 29.67 in 3.0 mi West 23.0 mph 27.6 mph 0.00 in Rain , Thunderstorm Light Thunderstorms and Rain
3:07 PM 66.2 °F - 62.6 °F 88% 29.67 in 4.0 mi WSW 21.9 mph 36.8 mph 0.03 in Rain Heavy Rain
3:18 PM 66.2 °F - 62.6 °F 88% 29.68 in 2.0 mi WSW 26.5 mph 34.5 mph 0.12 in Rain Rain
4:02 PM 69.8 °F - 62.6 °F 78% 29.65 in 4.0 mi WSW 21.9 mph 38.0 mph 0.03 in Rain Rain
4:53 PM 75.9 °F - 71.1 °F 85% 29.65 in 10.0 mi WSW 18.4 mph 23.0 mph 0.05 in   Clear
5:20 PM 75.2 °F - 71.6 °F 89% 29.64 in 10.0 mi WSW 9.2 mph - N/A   Mostly Cloudy
5:53 PM 77.0 °F - 72.0 °F 84% 29.65 in 10.0 mi SW 11.5 mph - N/A   Overcast
6:53 PM 78.1 °F - 72.0 °F 81% 29.66 in 10.0 mi West 11.5 mph - N/A   Overcast
7:05 PM 77.0 °F - 71.6 °F 83% 29.66 in 10.0 mi West 10.4 mph - N/A   Overcast
7:28 PM 77.0 °F - 69.8 °F 78% 29.66 in 10.0 mi West 17.3 mph 25.3 mph N/A   Mostly Cloudy
7:53 PM 75.9 °F - 70.0 °F 82% 29.68 in 9.0 mi West 10.4 mph - N/A   Partly Cloudy
8:29 PM 75.2 °F - 69.8 °F 83% 29.69 in 9.0 mi West 9.2 mph - N/A   Mostly Cloudy
8:53 PM 73.9 °F - 69.1 °F 85% 29.71 in 9.0 mi West 13.8 mph - N/A   Overcast
9:53 PM 73.0 °F - 68.0 °F 84% 29.72 in 8.0 mi WSW 10.4 mph - N/A   Clear
10:53 PM 72.0 °F - 66.9 °F 84% 29.74 in 8.0 mi West 11.5 mph - N/A   Partly Cloudy
11:53 PM 70.0 °F - 66.0 °F 87% 29.74 in 8.0 mi WSW 12.7 mph - N/A   Clear